Zurück zum Katalog

FENGYUN 1C DEB

AktivSSO
NORAD 30327·DEBRIS·🇨🇳 China

Gestartet May 10, 1999 von Taiyuan Satellite Launch Center

Loading…

Nächste Überflüge (nächste 24 Stunden)

TLE

AktuellSource: Space-Track

Epoche: Sep 14, 2026, 03:59 UTC

1 30327U 99025AAN 26257.16641363  .00002542  00000-0  11343-2 0  9999
2 30327  98.4271 143.4129 0117815  64.1351  86.8587 14.19911586  3498

Verfolge FENGYUN 1C DEB in Echtzeit mit AllMySat

Download on the App Store